When you browse on this site, cookies collect data to enhance your experience and personalize the content and advertising you see.
Visit our Privacy Policy to learn more. By continuing to use the site, you agree to this use of cookies and data.
  • în România
  • Lista ţărilor
  • Pe 7 zile
  • Temperatura apei
  • Hartă satelitară
  • Meteo pe hartă
  • Widget-uri
  • user-avatar
    Intrare

    Meteo pe oră la Tolido

    Astăzi, 21 Mai, Marţi

    Timp Temperatura Precipitaţii Vânt Presiune Umiditate
    00:00 +8°C° 0 mm 2 m/s 748 mmHg 84%
    01:00 +7°C° 0 mm 2 m/s 748 mmHg 85%
    02:00 +7°C° 0 mm 2 m/s 748 mmHg 85%
    03:00 +7°C° 0 mm 2 m/s 748 mmHg 85%
    04:00 +7°C° 0 mm 2 m/s 749 mmHg 82%
    05:00 +9°C° 0 mm 1 m/s 749 mmHg 79%
    06:00 +9°C° 0 mm 1 m/s 750 mmHg 76%
    07:00 +10°C° 0 mm 1 m/s 750 mmHg 73%
    08:00 +11°C° 0 mm 1 m/s 750 mmHg 70%
    09:00 +12°C° 0 mm 1 m/s 750 mmHg 67%
    10:00 +12°C° 0.2 mm 1 m/s 750 mmHg 70%
    11:00 +12°C° 0.2 mm 1 m/s 750 mmHg 72%
    12:00 +11°C° 0.2 mm 1 m/s 750 mmHg 74%
    13:00 +12°C° 0 mm 2 m/s 750 mmHg 69%
    14:00 +13°C° 0 mm 2 m/s 750 mmHg 63%
    15:00 +13°C° 0 mm 3 m/s 750 mmHg 58%
    16:00 +13°C° 0 mm 3 m/s 749 mmHg 62%
    17:00 +12°C° 0 mm 3 m/s 749 mmHg 65%
    18:00 +12°C° 0 mm 3 m/s 749 mmHg 68%
    19:00 +11°C° 0 mm 3 m/s 749 mmHg 68%
    20:00 +10°C° 0 mm 3 m/s 749 mmHg 69%
    21:00 +10°C° 0 mm 3 m/s 749 mmHg 69%
    22:00 +10°C° 0 mm 4 m/s 748 mmHg 67%
    23:00 +10°C° 0 mm 4 m/s 748 mmHg 66%

    Mâine, 22 Mai, Miercuri

    Timp Temperatura Precipitaţii Vânt Presiune Umiditate
    00:00 +9°C° 0 mm 5 m/s 748 mmHg 65%
    01:00 +9°C° 0 mm 5 m/s 748 mmHg 66%
    02:00 +9°C° 0 mm 5 m/s 748 mmHg 68%
    03:00 +9°C° 0 mm 6 m/s 748 mmHg 69%
    04:00 +9°C° 0.2 mm 5 m/s 748 mmHg 71%
    05:00 +9°C° 0.2 mm 5 m/s 747 mmHg 73%
    06:00 +9°C° 0.2 mm 5 m/s 747 mmHg 75%
    07:00 +12°C° 0.2 mm 5 m/s 747 mmHg 74%
    08:00 +13°C° 0.2 mm 5 m/s 747 mmHg 73%
    09:00 +15°C° 0.2 mm 5 m/s 747 mmHg 72%
    10:00 +17°C° 0.4 mm 5 m/s 746 mmHg 71%
    11:00 +20°C° 0.4 mm 5 m/s 746 mmHg 70%
    12:00 +22°C° 0.4 mm 4 m/s 746 mmHg 69%
    13:00 +21°C° 0.3 mm 4 m/s 745 mmHg 75%
    14:00 +21°C° 0.3 mm 3 m/s 745 mmHg 81%
    15:00 +20°C° 0.3 mm 2 m/s 745 mmHg 87%
    16:00 +20°C° 0 mm 2 m/s 745 mmHg 87%
    17:00 +21°C° 0 mm 2 m/s 745 mmHg 87%
    18:00 +22°C° 0 mm 1 m/s 745 mmHg 88%
    19:00 +20°C° 0 mm 2 m/s 745 mmHg 90%
    20:00 +20°C° 0 mm 2 m/s 745 mmHg 92%
    21:00 +19°C° 0 mm 2 m/s 746 mmHg 95%
    22:00 +19°C° 0 mm 3 m/s 746 mmHg 95%
    23:00 +19°C° 0 mm 3 m/s 746 mmHg 95%

    Poimâine, 23 Mai, Joi

    Timp Temperatura Precipitaţii Vânt Presiune Umiditate
    00:00 +19°C° 0 mm 4 m/s 746 mmHg 95%
    01:00 +19°C° 0.1 mm 4 m/s 746 mmHg 95%
    02:00 +19°C° 0.1 mm 4 m/s 746 mmHg 95%
    03:00 +20°C° 0.1 mm 5 m/s 746 mmHg 95%
    04:00 +20°C° 0.1 mm 4 m/s 746 mmHg 94%
    05:00 +20°C° 0.1 mm 4 m/s 746 mmHg 93%
    06:00 +20°C° 0.1 mm 3 m/s 746 mmHg 92%
    07:00 +21°C° 0 mm 4 m/s 746 mmHg 88%
    08:00 +22°C° 0 mm 5 m/s 746 mmHg 84%
    09:00 +24°C° 0 mm 7 m/s 745 mmHg 80%
    10:00 +26°C° 0 mm 7 m/s 745 mmHg 74%
    11:00 +28°C° 0 mm 8 m/s 745 mmHg 69%
    12:00 +29°C° 0 mm 8 m/s 745 mmHg 63%
    13:00 +29°C° 0.1 mm 8 m/s 745 mmHg 61%
    14:00 +31°C° 0.1 mm 8 m/s 745 mmHg 59%
    15:00 +31°C° 0.1 mm 8 m/s 744 mmHg 57%
    16:00 +28°C° 0 mm 7 m/s 745 mmHg 60%
    17:00 +26°C° 0 mm 6 m/s 745 mmHg 63%
    18:00 +23°C° 0 mm 6 m/s 745 mmHg 66%
    19:00 +22°C° 0 mm 5 m/s 746 mmHg 69%
    20:00 +20°C° 0 mm 4 m/s 746 mmHg 72%
    21:00 +18°C° 0 mm 4 m/s 747 mmHg 75%
    22:00 +17°C° 0 mm 3 m/s 747 mmHg 79%
    23:00 +16°C° 0 mm 3 m/s 747 mmHg 83%

    24 Mai, Vineri

    Timp Temperatura Precipitaţii Vânt Presiune Umiditate
    00:00 +14°C° 0 mm 3 m/s 747 mmHg 86%
    01:00 +15°C° 0 mm 2 m/s 748 mmHg 88%
    02:00 +14°C° 0 mm 2 m/s 748 mmHg 89%
    03:00 +14°C° 0 mm 2 m/s 748 mmHg 90%
    04:00 +14°C° 0 mm 2 m/s 748 mmHg 88%
    05:00 +15°C° 0 mm 1 m/s 749 mmHg 87%
    06:00 +15°C° 0 mm 1 m/s 749 mmHg 85%
    07:00 +16°C° 0 mm 1 m/s 749 mmHg 81%
    08:00 +17°C° 0 mm 2 m/s 749 mmHg 78%
    09:00 +18°C° 0 mm 2 m/s 749 mmHg 74%
    10:00 +20°C° 0 mm 2 m/s 749 mmHg 70%
    11:00 +21°C° 0 mm 2 m/s 748 mmHg 66%
    12:00 +24°C° 0 mm 3 m/s 748 mmHg 62%
    13:00 +25°C° 0 mm 3 m/s 747 mmHg 63%
    14:00 +26°C° 0 mm 3 m/s 747 mmHg 63%
    15:00 +27°C° 0 mm 4 m/s 746 mmHg 64%
    16:00 +26°C° 0.2 mm 3 m/s 746 mmHg 69%
    17:00 +25°C° 0.2 mm 3 m/s 745 mmHg 75%
    18:00 +24°C° 0.2 mm 3 m/s 745 mmHg 80%
    19:00 +24°C° 1 mm 2 m/s 745 mmHg 83%
    20:00 +23°C° 1 mm 2 m/s 745 mmHg 86%
    21:00 +23°C° 1 mm 2 m/s 745 mmHg 89%
    22:00 +22°C° 0 mm 3 m/s 744 mmHg 90%
    23:00 +22°C° 0 mm 4 m/s 744 mmHg 90%

    25 Mai, Sâmbătă

    Timp Temperatura Precipitaţii Vânt Presiune Umiditate
    00:00 +21°C° 0 mm 4 m/s 743 mmHg 90%
    01:00 +21°C° 0.1 mm 5 m/s 743 mmHg 90%
    02:00 +21°C° 0.1 mm 5 m/s 743 mmHg 90%
    03:00 +21°C° 0.1 mm 6 m/s 743 mmHg 89%
    04:00 +22°C° 0 mm 6 m/s 743 mmHg 88%
    05:00 +22°C° 0 mm 6 m/s 743 mmHg 88%
    06:00 +22°C° 0 mm 6 m/s 743 mmHg 87%
    07:00 +23°C° 0 mm 6 m/s 743 mmHg 83%
    08:00 +24°C° 0 mm 7 m/s 743 mmHg 80%
    09:00 +26°C° 0 mm 7 m/s 743 mmHg 76%
    10:00 +27°C° 0.3 mm 7 m/s 743 mmHg 73%
    11:00 +28°C° 0.3 mm 7 m/s 743 mmHg 69%
    12:00 +29°C° 0.3 mm 8 m/s 743 mmHg 65%
    13:00 +28°C° 0.1 mm 7 m/s 743 mmHg 68%
    14:00 +28°C° 0.1 mm 6 m/s 742 mmHg 71%
    15:00 +27°C° 0.1 mm 6 m/s 742 mmHg 74%
    16:00 +27°C° 0 mm 5 m/s 742 mmHg 76%
    17:00 +26°C° 0 mm 4 m/s 743 mmHg 78%
    18:00 +26°C° 0 mm 4 m/s 743 mmHg 80%
    19:00 +25°C° 0.1 mm 4 m/s 743 mmHg 83%
    20:00 +23°C° 0.1 mm 4 m/s 743 mmHg 85%
    21:00 +22°C° 0.1 mm 4 m/s 743 mmHg 87%
    22:00 +22°C° 2.1 mm 3 m/s 743 mmHg 88%
    23:00 +21°C° 2.1 mm 2 m/s 743 mmHg 90%

    26 Mai, Duminică

    Timp Temperatura Precipitaţii Vânt Presiune Umiditate
    00:00 +21°C° 2.1 mm 2 m/s 743 mmHg 91%
    01:00 +20°C° 0 mm 2 m/s 743 mmHg 92%
    02:00 +21°C° 0 mm 1 m/s 742 mmHg 93%
    03:00 +21°C° 0 mm 1 m/s 742 mmHg 94%
    04:00 +21°C° 0 mm 1 m/s 743 mmHg 93%
    05:00 +21°C° 0 mm 1 m/s 743 mmHg 92%
    06:00 +22°C° 0 mm 1 m/s 744 mmHg 90%
    07:00 +23°C° 0 mm 1 m/s 744 mmHg 84%
    08:00 +25°C° 0 mm 1 m/s 744 mmHg 78%
    09:00 +26°C° 0 mm 1 m/s 744 mmHg 72%
    10:00 +27°C° 0.2 mm 1 m/s 744 mmHg 70%
    11:00 +27°C° 0.2 mm 1 m/s 744 mmHg 68%
    12:00 +28°C° 0.2 mm 2 m/s 744 mmHg 66%
    13:00 +27°C° 0.6 mm 2 m/s 744 mmHg 68%
    14:00 +27°C° 0.6 mm 2 m/s 744 mmHg 69%
    15:00 +27°C° 0.6 mm 3 m/s 744 mmHg 71%
    16:00 +26°C° 0.3 mm 3 m/s 744 mmHg 76%
    17:00 +24°C° 0.3 mm 3 m/s 744 mmHg 81%
    18:00 +22°C° 0.3 mm 3 m/s 744 mmHg 86%
    19:00 +21°C° 0 mm 2 m/s 744 mmHg 87%
    20:00 +20°C° 0 mm 2 m/s 744 mmHg 88%
    21:00 +19°C° 0 mm 2 m/s 744 mmHg 89%
    22:00 +19°C° 0 mm 2 m/s 745 mmHg 88%
    23:00 +18°C° 0 mm 3 m/s 745 mmHg 86%
    Arată mai mult